VIDP

Delhi/Indira Gandhi International (IGI) Airport

Airport
ICAO code
VIDP
IATA Code
DEL
Summary
ICAO Region
APAC
ICAO Territory
Location

Palam, National Capitol Region of Delhi

Serving
New Delhi
Elevation
777 ft
Coordinates
28° 33' 30" N , 77° 5' 38" E
KCC
Airport BS
Bird Strike
Airport LOS
Parallel Runway Operation
Airport WX
Fog
Metar
Observation
VIDP 031800Z 00000KT 2500 BR NSC 15/11 Q1016 NOSIG
Station
New Delhi / Palam
Date/Time
2023-02-03 18:00:00
Wind direction
Wind speed
00 kts
Lowest cloud amount
nil significant cloud
Temperature
15°C
Dew point
11°C
Humidity
77%
QNH
1016 hPa
Weather condition
n/a

International airport serving the city of New Delhi.

Climatology

Humid “subtropical” climate (Köppen climate classification Cwa) - characterized by hot, humid summers and cool winters.

Overnight radiation fog in winter is a well-recognised problem.

SKYbrary Partners:

Safety knowledge contributed by: